COSMOS 2251 DEB, 33917

Orbit data source: Space-Track

COSMOS 2251 DEB, 33917 is space debris in LEO originally from a launch on Wed, 16 Jun 1993 UTC launched from the Plesetsk Missile And Space Complex (PKMTR). The debris from Iridium 33, an American commercial communications satellite, has been tracked extensively since its accidental collision with the defunct Russian satellite Cosmos 2251 in 2009. This event, occurring at high speed in low Earth orbit (LEO), generated thousands of pieces of space debris, significantly increasing the risk of further collisions. The Iridium 33 debris cloud has impacted space traffic management and orbital debris mitigation strategies, making it a subject of ongoing study in space situational awareness.

Loading next visibility...
Identifier
33917, 1993-036DW
Orbit
LEO
Country
Flag of CISCIS
Related business
Manufacturer
Unknown
Mission
Spacecraft
Bus & Motor
Unknown
Mass
Unknown
Launch date (UTC)
1993-06-16 (33 years ago)
Launch vehicle
Unknown
Launch site
Plesetsk Missile And Space Complex (PKMTR)
Object type
Payload
Rocket body
Debris
Shape & HBR
Unknown shape, 0.1 m
Radar Cross Section
Medium (>0.1 m² and <1 m²)

Expand to show TLE details & history
Last TLE update: 12 hours ago

TLE from 12 hours ago
0 COSMOS 2251 DEB
1 33917U 93036DW  26237.92708406  .00001484  00000-0  11574-2 0  9997
2 33917  74.1039  62.0643 0333409 102.4284 261.4352 13.69977607872413
Epoch: 2026-08-25T22:15Z
TLE epoch observation values (Epoch: 2026-08-25T22:15:00.062Z)
Latitude
-0.00011°
Longitude
114.12659°
Altitude
1,046.787 km
Speed
7.306 km/s
True Right ascension
04h 08m 15s
True Declination
0° 00' 00"
Sunlit
Object was in daylight at epoch
Visualization orbit readout
Latitude
Unknown
Longitude
Unknown
Altitude
Unknown
Speed
Unknown
Apparent Right ascension
Unknown
Apparent Declination
Unknown
Sunlit
N/A
Visualization observer readout
Local Sidereal Time
01:14:19
Azimuth
Unknown
Elevation
Unknown
Doppler factor
Unknown
Orbital elements
Apogee altitude
1,243.245 km
Perigee altitude
751.435 km
Semi-major axis
7,375.477 km
Eccentricity
0.03334
Inclination
74.1039°
RAAN
62.0643°
Arg. of periapsis
102.4284°
True anomaly
257.68321°
Mean anomaly
261.4352°
Eccentric anomaly
259.55655°
Mean motion
3.42656 °/min
Orbital period
105.06 mins
BSTAR
0.0011574
Loading maneuver chart data...
Computing Atmospheric mass density...

Documentation

Showing up to 5 results
|